Regional Weather Roundup
Issued by NWS

Home | Current Version | Previous Version | Text Only | Print | Product List | Glossary Off
Versions: 1 2 3 4 5 6 7 8 9 10 11 12 13 14 15 16 17 18 19 20 21 22 23 24 25 26 27

000
ASUS45 KPSR 110410
RWRAZ

ARIZONA HOURLY REGIONAL WEATHER ROUNDUP
NATIONAL WEATHER SERVICE PHOENIX AZ
900 PM MST SAT DEC 10 2016

NOTE: FAIR INDICATES FEW OR NO CLOUDS BELOW 12,000 FEET WITH NO
SIGNIFICANT WEATHER AND/OR OBSTRUCTIONS TO VISIBILITY.

AZZ001>003-036-110500-
NORTHWEST ARIZONA

CITY           SKY/WX    TMP DP  RH WIND       PRES   REMARKS
BULLHEAD CITY  CLOUDY    61  32  33 E5        30.00S
KINGMAN        CLOUDY    52  37  56 SE3       30.05S
$$

AZZ004>008-015-016-018-110500-
NORTH CENTRAL ARIZONA

CITY           SKY/WX    TMP DP  RH WIND       PRES   REMARKS
GRAND CANYON   CLOUDY    36  34  92 CALM      30.14R
WILLIAMS       MOCLDY    39  34  81 S7        30.15R WCI  34
PRESCOTT       CLOUDY    48  38  68 S7        30.12S
FLAGSTAFF      PTCLDY    35  29  78 CALM      30.16R
PAYSON         MOCLDY    45  32  61 CALM      30.16F
PAGE           CLOUDY    42  25  50 SW3       30.02S
$$

AZZ009>014-017-110500-
NORTHEAST ARIZONA

CITY           SKY/WX    TMP DP  RH WIND       PRES   REMARKS
WINSLOW        MOCLDY    42  31  64 S6        30.07R
SAINT JOHNS    PTCLDY    48  24  39 SW14      30.07F
WINDOW ROCK    CLEAR     37  24  59 SW5       30.09S WCI  33
SHOW LOW       PTCLDY    41  25  52 S16       30.14S
$$

AZZ023-110500-
GREATER PHOENIX AREA

CITY           SKY/WX    TMP DP  RH WIND       PRES   REMARKS
PHOENIX        CLOUDY    61  39  44 CALM      30.04R
BUCKEYE          N/A     55  39  54 NE5       30.06R
LUKE AFB       CLOUDY    56  44  62 N3        30.03R
DEER VALLEY    CLOUDY    56  38  50 N3        30.04R
SCOTTSDALE     MOCLDY    59  40  49 CALM      30.06R
MESA-GATEWAY   CLEAR     55  36  47 E6        30.06S
CHANDLER       MOCLDY    55  41  58 VRB6      30.05R
$$

AZZ027-028-110500-
SOUTHWEST MARICOPA COUNTY AND PINAL COUNTY

CITY           SKY/WX    TMP DP  RH WIND       PRES   REMARKS
CASA GRANDE    NOT AVBL
GILA BEND      FAIR      58  37  45 S7        30.04R
$$

AZZ503-504-507>509-110500-
SOUTHEAST ARIZONA

CITY           SKY/WX    TMP DP  RH WIND       PRES   REMARKS
TUCSON         MOCLDY    56  35  45 S5        30.12R
DAVIS-MONTHAN  CLOUDY    52  33  49 S7        30.10S
NOGALES        CLEAR     50  24  36 E7        30.14R
SIERRA VISTA   CLEAR     50  22  33 SW3       30.17R
DOUGLAS        CLEAR     46  24  42 N5        30.14R
SAFFORD        MOCLDY    45  31  58 SW3       30.09R
$$

AZZ020-021-025-026-031-110500-
SOUTHWEST ARIZONA

CITY           SKY/WX    TMP DP  RH WIND       PRES   REMARKS
YUMA           CLOUDY    61  40  45 SE3       30.02R
$$

CAZ031-033-041-043-047-048-061-110500-
SOUTHERN CALIFORNIA

CITY           SKY/WX    TMP DP  RH WIND       PRES   REMARKS
DOWNTOWN L.A.  CLOUDY    59  57  93 CALM      30.11S FOG
L.A. AIRPORT   CLOUDY    60  59  96 W8        30.11S
SAN DIEGO      MOCLDY    62  55  77 N7        30.15R
BURBANK        CLOUDY    60  53  77 SE7       30.10S HAZE
ONTARIO        MOCLDY    54  53  97 W3        30.11R FOG
RIVERSIDE      CLOUDY    58  55  90 CALM      30.12R
PALM SPRINGS   CLEAR     63  39  42 VRB5      30.01
EL CENTRO NAS  CLOUDY    59  39  47 CALM      30.02R
IMPERIAL       CLOUDY    58  41  53 CALM      30.00R
BLYTHE         CLOUDY    62  38  40 SE5       30.01R
NEEDLES        CLOUDY    61  25  25 CALM      30.00S
$$

NVZ020-UTZ003-110500-
SOUTHERN NEVADA-UTAH

CITY           SKY/WX    TMP DP  RH WIND       PRES   REMARKS
LAS VEGAS      MOCLDY    52  24  33 S3        29.99S
SALT LAKE CITY RAIN      37  34  89 N5        29.93R WCI  33
$$

NMZ009-TXZ055-110500-
NEW MEXICO-WEST TEXAS

CITY           SKY/WX    TMP DP  RH WIND       PRES   REMARKS
ALBUQUERQUE    CLOUDY    38  29  70 S6        30.04S WCI  33
EL PASO        CLEAR     50  37  61 S7        30.08F
$$


........................KEY........................
SKY/WX - SKY CONDITION/WEATHER
TMP    - TEMPERATURE IN FAHRENHEIT
DP     - DEW POINT IN FAHRENHEIT
RH     - RELATIVE HUMIDITY IN PERCENT
WIND   - DIRECTION AND SPEED IN MILES PER HOUR (MPH)
VRB    - VARIABLE WIND DIRECTION
PRES   - MEAN SEA LEVEL PRESSURE IN INCHES OF MERCURY
         F - FALLING PRESSURE   R - RISING PRESSURE
         S - STEADY PRESSURE
VSB    - VISIBILITY IN MILES
HX     - HEAT INDEX IN FAHRENHEIT
WCI    - WIND CHILL INDEX IN FAHRENHEIT
TC     - TEMPERATURE IN CELSIUS WHICH IS ALSO KNOWN AS
         TEMPERATURE IN CENTIGRADE
AFB    - AIR FORCE BASE
         LUKE AFB IS LUKE AIR FORCE BASE
         DAVIS-MONTHAN IS DAVIS-MONTHAN AIR FORCE BASE
NAS    - NAVAL AIR STATION
         EL CENTRO NAS IS EL CENTRO NAVAL AIR STATION
N/A    - NOT AVAILABLE





USA.gov is the U.S. government's official web portal to all federal, state and local government web resources and services.